Weather History for Langdon, ND

Change the Weather History Date:

Monday, December 3, 2012

  Actual Average (KDVL) Record (KDVL)
Temperature  
Mean Temperature 22 °F -  
Max Temperature 37 °F 24 °F 47 °F (1967)
Min Temperature 6 °F 9 °F -20 °F (1964)
Degree Days  
Heating Degree Days 44    
Moisture  
Dew Point 23 °F    
Average Humidity 89    
Maximum Humidity 100    
Minimum Humidity 73    
Precipitation  
Precipitation 0.00 in - - ()
Sea Level Pressure  
Sea Level Pressure 29.51 in    
Wind  
Wind Speed 18 mph (West)    
Max Wind Speed 38 mph    
Max Gust Speed 45 mph    
Visibility 10 miles    
Events Rain , Snow    
Averages and records for this station are not official NWS values.
T = Trace of Precipitation, MM = Missing Value Source: NWS Daily Summary

Daily Weather History Graph

Daily Weather History Graph

Search for Another Location

Airport:

Trip Planner

Search our weather history database for the weather conditions in past years. The results will help you decide how hot, cold, wet, or windy it might be!

Date:

Astronomy

Dec. 03, 2012 Rise Set
Actual Time 8:08 AM CST 4:38 PM CST
Civil Twilight 7:32 AM CST 5:15 PM CST
Nautical Twilight 6:52 AM CST 5:54 PM CST
Astronomical Twilight 6:14 AM CST 6:32 PM CST
Moon 9:41 PM CST (12/3) 11:20 AM CST (12/3)
Length of Visible Light 9h 43m
Length of Day
8h 30m
Waning Gibbous, 78% of the Moon is Illuminated
Dec 3
Waning Gibbous
Dec 6
Last Quarter
Dec 13
New
Dec 19
First Quarter
Dec 28
Full

Hourly Weather History & Observations

Time (CST) Temp. Windchill Dew Point Humidity Pressure Visibility Wind Dir Wind Speed Gust Speed Precip Events Conditions
12:15 AM 35.6 °F 27.5 °F 35.6 °F 100% 29.30 in 10.0 mi South 11.5 mph - N/A   Clear
12:35 AM 37.4 °F 30.3 °F 35.6 °F 93% 29.31 in 10.0 mi South 10.4 mph - N/A   Clear
12:55 AM 35.6 °F 27.5 °F 35.6 °F 100% 29.29 in 10.0 mi South 11.5 mph - N/A   Clear
1:15 AM 35.6 °F 27.1 °F 35.6 °F 100% 29.28 in 10.0 mi South 12.7 mph - N/A   Clear
1:35 AM 35.6 °F 26.2 °F 35.6 °F 100% 29.28 in 10.0 mi SSW 15.0 mph - N/A   Clear
1:55 AM 35.6 °F 27.5 °F 35.6 °F 100% 29.28 in 10.0 mi SSW 11.5 mph - N/A   Clear
2:15 AM 35.6 °F 28.0 °F 35.6 °F 100% 29.28 in 10.0 mi SSW 10.4 mph - N/A   Clear
2:35 AM 35.6 °F 27.5 °F 35.6 °F 100% 29.28 in 10.0 mi SSW 11.5 mph - N/A   Clear
2:55 AM 35.6 °F 27.5 °F 35.6 °F 100% 29.28 in 10.0 mi South 11.5 mph - N/A   Scattered Clouds
3:15 AM 35.6 °F 27.1 °F 35.6 °F 100% 29.28 in 10.0 mi SSW 12.7 mph - N/A   Scattered Clouds
3:35 AM 35.6 °F 25.9 °F 33.8 °F 93% 29.29 in 10.0 mi SW 16.1 mph - N/A   Mostly Cloudy
3:55 AM 35.6 °F 27.1 °F 33.8 °F 93% 29.28 in 10.0 mi SSW 12.7 mph - N/A   Scattered Clouds
4:15 AM 35.6 °F 27.5 °F 33.8 °F 93% 29.28 in 10.0 mi SW 11.5 mph - N/A   Partly Cloudy
4:35 AM 35.6 °F 26.6 °F 33.8 °F 93% 29.30 in 10.0 mi SW 13.8 mph - N/A   Partly Cloudy
4:55 AM 35.6 °F 26.6 °F 33.8 °F 93% 29.31 in 10.0 mi WSW 13.8 mph - N/A   Clear
5:15 AM 35.6 °F 26.2 °F 33.8 °F 93% 29.32 in 10.0 mi West 15.0 mph - N/A   Mostly Cloudy
5:35 AM 35.6 °F 25.5 °F 33.8 °F 93% 29.34 in 10.0 mi West 17.3 mph - N/A   Mostly Cloudy
5:55 AM 35.6 °F 26.2 °F 33.8 °F 93% 29.35 in 10.0 mi WNW 15.0 mph - N/A   Scattered Clouds
6:15 AM 35.6 °F 25.9 °F 33.8 °F 93% 29.36 in 10.0 mi WNW 16.1 mph - N/A   Mostly Cloudy
6:35 AM 33.8 °F 25.3 °F 33.8 °F 100% 29.36 in 9.0 mi WNW 11.5 mph - N/A Rain Light Rain
6:55 AM 32.0 °F 21.2 °F 32.0 °F 100% 29.39 in 4.0 mi West 16.1 mph - N/A Rain Light Rain
7:15 AM 32.0 °F 22.5 °F 32.0 °F 100% 29.40 in 3.0 mi West 12.7 mph - N/A Rain Light Rain
7:35 AM 32.0 °F 23.6 °F 32.0 °F 100% 29.39 in 5.0 mi West 10.4 mph - N/A Rain Light Rain
7:55 AM 32.0 °F 23.0 °F 32.0 °F 100% 29.39 in 7.0 mi West 11.5 mph - N/A   Mostly Cloudy
8:15 AM 32.0 °F 21.6 °F 32.0 °F 100% 29.41 in 7.0 mi West 15.0 mph - N/A   Clear
8:35 AM 35.6 °F 24.8 °F 35.6 °F 100% 29.41 in 10.0 mi West 19.6 mph - N/A   Partly Cloudy
9:15 AM 33.8 °F 23.9 °F 33.8 °F 100% 29.41 in 10.0 mi West 15.0 mph - N/A   Clear
9:35 AM 33.8 °F 23.2 °F 33.8 °F 100% 29.41 in 10.0 mi West 17.3 mph - N/A   Clear
9:55 AM 33.8 °F 23.2 °F 33.8 °F 100% 29.41 in 10.0 mi West 17.3 mph - N/A   Partly Cloudy
10:15 AM 33.8 °F 22.2 °F 33.8 °F 100% 29.43 in 10.0 mi West 20.7 mph - N/A   Clear
10:35 AM 33.8 °F 23.2 °F 32.0 °F 93% 29.44 in 10.0 mi West 17.3 mph - N/A   Clear
10:55 AM 33.8 °F 21.9 °F 32.0 °F 93% 29.47 in 10.0 mi West 21.9 mph 26.5 mph N/A   Partly Cloudy
11:15 AM 32.0 °F 20.8 °F 32.0 °F 100% 29.48 in 10.0 mi WNW 17.3 mph 25.3 mph N/A   Mostly Cloudy
11:35 AM 32.0 °F 19.8 °F 32.0 °F 100% 29.49 in 10.0 mi WNW 20.7 mph 31.1 mph N/A   Scattered Clouds
11:55 AM 32.0 °F 20.5 °F 28.4 °F 87% 29.49 in 10.0 mi WNW 18.4 mph 27.6 mph N/A   Scattered Clouds
12:15 PM 32.0 °F 20.8 °F 30.2 °F 93% 29.49 in 10.0 mi West 17.3 mph 28.8 mph N/A   Mostly Cloudy
12:35 PM 32.0 °F 19.2 °F 30.2 °F 93% 29.49 in 10.0 mi West 23.0 mph 32.2 mph N/A   Overcast
12:55 PM 32.0 °F 17.6 °F 28.4 °F 87% 29.50 in 10.0 mi West 29.9 mph 39.1 mph N/A   Overcast
1:15 PM 30.2 °F 16.8 °F 28.4 °F 93% 29.51 in 10.0 mi WNW 23.0 mph 36.8 mph N/A   Overcast
1:35 PM 28.4 °F 12.7 °F 26.6 °F 93% 29.52 in 10.0 mi West 29.9 mph 39.1 mph N/A   Overcast
1:55 PM 28.4 °F 12.7 °F 26.6 °F 93% 29.52 in 10.0 mi West 29.9 mph 38.0 mph N/A   Overcast
2:15 PM 26.6 °F 10.8 °F 23.0 °F 86% 29.53 in 10.0 mi West 27.6 mph 35.7 mph N/A   Overcast
2:35 PM 24.8 °F 7.3 °F 17.6 °F 74% 29.54 in 10.0 mi WNW 32.2 mph 36.8 mph N/A   Mostly Cloudy
2:55 PM 23.0 °F 3.7 °F 19.4 °F 86% 29.55 in 10.0 mi West 38.0 mph 41.4 mph N/A   Mostly Cloudy
3:15 PM 21.2 °F 3.3 °F 15.8 °F 80% 29.57 in 10.0 mi WNW 28.8 mph 35.7 mph N/A   Mostly Cloudy
3:35 PM 19.4 °F 0.2 °F 15.8 °F 86% 29.58 in 10.0 mi WNW 31.1 mph 36.8 mph N/A   Mostly Cloudy
3:55 PM 19.4 °F -0.6 °F 14.0 °F 80% 29.59 in 10.0 mi WNW 34.5 mph 41.4 mph N/A   Overcast
4:15 PM 17.6 °F -2.5 °F 12.2 °F 79% 29.61 in 10.0 mi WNW 32.2 mph 42.6 mph N/A   Overcast
4:35 PM 17.6 °F -1.3 °F 12.2 °F 79% 29.63 in 10.0 mi WNW 27.6 mph 36.8 mph N/A   Overcast
4:55 PM 15.8 °F -5.5 °F 10.4 °F 79% 29.63 in 10.0 mi WNW 34.5 mph 40.3 mph N/A   Overcast
5:15 PM 15.8 °F -6.3 °F 10.4 °F 79% 29.64 in 10.0 mi WNW 38.0 mph 44.9 mph N/A   Mostly Cloudy
5:35 PM 15.8 °F -5.5 °F 10.4 °F 79% 29.65 in 10.0 mi WNW 34.5 mph 42.6 mph N/A   Overcast
5:55 PM 15.8 °F -4.4 °F 10.4 °F 79% 29.67 in 10.0 mi WNW 29.9 mph 40.3 mph N/A Snow Light Snow
6:15 PM 14.0 °F -8.0 °F 10.4 °F 86% 29.68 in 8.0 mi WNW 34.5 mph 43.7 mph N/A Snow Light Snow
6:35 PM 14.0 °F -7.4 °F 6.8 °F 73% 29.69 in 10.0 mi WNW 32.2 mph 38.0 mph N/A   Mostly Cloudy
6:55 PM 12.2 °F -10.5 °F 6.8 °F 79% 29.71 in 10.0 mi WNW 34.5 mph 42.6 mph N/A   Scattered Clouds
7:15 PM 12.2 °F -8.9 °F 6.8 °F 79% 29.73 in 10.0 mi WNW 28.8 mph 34.5 mph N/A   Clear
7:35 PM 10.4 °F -12.7 °F 5.0 °F 79% 29.75 in 10.0 mi WNW 33.4 mph 43.7 mph N/A   Clear
7:55 PM 10.4 °F -12.3 °F 5.0 °F 79% 29.76 in 10.0 mi WNW 32.2 mph 41.4 mph N/A   Clear
8:15 PM 10.4 °F -11.0 °F 5.0 °F 79% 29.78 in 10.0 mi WNW 27.6 mph 39.1 mph N/A   Clear
8:35 PM 10.4 °F -12.7 °F 5.0 °F 79% 29.78 in 10.0 mi WNW 33.4 mph 38.0 mph N/A   Mostly Cloudy
8:55 PM 8.6 °F -15.1 °F 3.2 °F 79% 29.79 in 10.0 mi WNW 33.4 mph 43.7 mph N/A   Mostly Cloudy
9:15 PM 8.6 °F -12.7 °F 3.2 °F 79% 29.79 in 10.0 mi WNW 25.3 mph 34.5 mph N/A   Clear
9:35 PM 8.6 °F -13.8 °F 3.2 °F 79% 29.81 in 10.0 mi WNW 28.8 mph 38.0 mph N/A   Partly Cloudy
9:55 PM 8.6 °F -14.1 °F 1.4 °F 73% 29.82 in 10.0 mi WNW 29.9 mph 40.3 mph N/A   Clear
10:15 PM 6.8 °F -14.3 °F 1.4 °F 79% 29.83 in 10.0 mi WNW 23.0 mph 32.2 mph N/A   Clear
10:35 PM 6.8 °F -14.3 °F 1.4 °F 79% 29.84 in 10.0 mi NW 23.0 mph 31.1 mph N/A   Clear
10:55 PM 6.8 °F -15.5 °F 1.4 °F 79% 29.84 in 10.0 mi WNW 26.5 mph 32.2 mph N/A   Clear
11:15 PM 6.8 °F -15.1 °F 1.4 °F 79% 29.86 in 10.0 mi WNW 25.3 mph 32.2 mph N/A   Clear
11:35 PM 6.8 °F -14.7 °F 1.4 °F 79% 29.88 in 10.0 mi WNW 24.2 mph 29.9 mph N/A   Clear